Location: Prairie Dale
(45.6972°N, 104.5033°W)
Time: 21:52:06
(UTC+00:00)

ESTCUBE 1 - Pass Details

Date: 01 July 2022
Orbit: 645 x 657 km, 97.9° (Epoch: 16 August)

Event Time Altitude Azimuth Distance (km) Brightness Sun altitude
Exits shadow 03:38:34 - 107° (ESE) 2,377 ? -7.2°
Reaches altitude 10° 03:39:48 10° 96° (E) 2,048 ? -7.3°
Maximum altitude 03:42:22 15° 61° (ENE) 1,720 ? -7.6°
Drops below altitude 10° 03:44:58 10° 25° (NNE) 2,059 ? -8.0°
Sets 03:47:59 0° 3° (N) 2,977 ? -8.3°
